AAL3014 KMIA-KLAX

Flight info

Callsign AAL3014
Flight time 5h 16m
Altitude 40000
Route GLADZ4 BAGGS REMIS Y280 LEV J86 ELP J50 SSO J4 WLVRN ESTWD HLYWD1
Aircraft B772/H-SDE2E3FGHIJ5LORVWXY/LB1D1

Departure

Time 2026-04-25 16:31
Airport Miami International Airport (KMIA)

Arrival

Time 2026-04-25 21:48
Airport Los Angeles International Airport (KLAX)
Time Latitude Longitude Altitude Speed Heading
2026-04-25 15:43 25.79779 -80.28046 21 ft 0 kts 214°
2026-04-25 16:16 25.79781 -80.28044 21 ft 3 kts 214°
2026-04-25 16:16 25.79798 -80.28031 25 ft 3 kts 214°
2026-04-25 16:16 25.79820 -80.28015 24 ft 4 kts 214°
2026-04-25 16:17 25.79842 -80.27998 24 ft 4 kts 217°
2026-04-25 16:17 25.79863 -80.27979 23 ft 4 kts 226°
2026-04-25 16:17 25.79878 -80.27956 23 ft 4 kts 260°
2026-04-25 16:17 25.79880 -80.27930 24 ft 4 kts 267°
2026-04-25 16:18 25.79881 -80.27900 24 ft 4 kts 267°
2026-04-25 16:18 25.79882 -80.27890 24 ft 4 kts 267°
2026-04-25 16:18 25.79884 -80.27847 23 ft 4 kts 267°
2026-04-25 16:18 25.79885 -80.27822 21 ft 1 kts 267°
2026-04-25 16:23 25.79887 -80.27851 23 ft 7 kts 284°
2026-04-25 16:23 25.79926 -80.27883 18 ft 7 kts 343°
2026-04-25 16:23 25.79978 -80.27890 17 ft 8 kts 356°
2026-04-25 16:24 25.80031 -80.27911 16 ft 8 kts 320°
2026-04-25 16:24 25.80048 -80.27972 16 ft 10 kts 274°
2026-04-25 16:24 25.80046 -80.28073 16 ft 14 kts 267°
2026-04-25 16:24 25.80041 -80.28185 19 ft 14 kts 267°
2026-04-25 16:25 25.80037 -80.28296 20 ft 14 kts 267°
2026-04-25 16:25 25.80035 -80.28332 21 ft 14 kts 268°
2026-04-25 16:25 25.80028 -80.28520 21 ft 14 kts 267°
2026-04-25 16:25 25.80024 -80.28631 27 ft 14 kts 268°
2026-04-25 16:26 25.80020 -80.28742 27 ft 14 kts 268°
2026-04-25 16:26 25.80015 -80.28853 31 ft 14 kts 267°
2026-04-25 16:26 25.80009 -80.28965 28 ft 14 kts 267°
2026-04-25 16:26 25.80004 -80.29077 29 ft 14 kts 267°
2026-04-25 16:27 25.80000 -80.29188 26 ft 14 kts 268°
2026-04-25 16:27 25.79995 -80.29300 24 ft 14 kts 267°
2026-04-25 16:27 25.79991 -80.29412 20 ft 14 kts 267°
2026-04-25 16:27 25.79986 -80.29523 18 ft 14 kts 267°
2026-04-25 16:28 25.79982 -80.29635 18 ft 14 kts 268°
2026-04-25 16:28 25.79978 -80.29747 18 ft 14 kts 267°
2026-04-25 16:28 25.79972 -80.29858 16 ft 14 kts 267°
2026-04-25 16:28 25.79968 -80.29970 16 ft 14 kts 267°
2026-04-25 16:29 25.79966 -80.30018 16 ft 4 kts 267°
2026-04-25 16:29 25.79973 -80.30066 17 ft 0 kts 293°
2026-04-25 16:29 25.79974 -80.30069 17 ft 3 kts 293°
2026-04-25 16:30 25.80005 -80.30115 19 ft 9 kts 327°
2026-04-25 16:30 25.80068 -80.30102 18 ft 9 kts 54°
2026-04-25 16:30 25.80074 -80.30056 17 ft 9 kts 86°
2026-04-25 16:30 25.80083 -80.29843 17 ft 54 kts 88°
2026-04-25 16:31 25.80112 -80.29163 28 ft 122 kts 87°
2026-04-25 16:31 25.80162 -80.27992 117 ft 170 kts 89°
2026-04-25 16:31 25.80242 -80.26712 988 ft 161 kts 88°
2026-04-25 16:31 25.80315 -80.25440 1790 ft 169 kts 88°
2026-04-25 16:32 25.80381 -80.24047 2079 ft 193 kts 89°
2026-04-25 16:32 25.80442 -80.22450 2262 ft 220 kts 88°
2026-04-25 16:32 25.80504 -80.20663 2481 ft 245 kts 89°
2026-04-25 16:32 25.80643 -80.18761 3046 ft 252 kts 76°
2026-04-25 16:33 25.81518 -80.17065 3731 ft 260 kts 45°
2026-04-25 16:33 25.83088 -80.16053 4440 ft 267 kts 16°
2026-04-25 16:33 25.84935 -80.15850 5094 ft 270 kts
2026-04-25 16:33 25.86838 -80.15798 5753 ft 276 kts
2026-04-25 16:34 25.88757 -80.15735 6510 ft 275 kts
2026-04-25 16:34 25.90653 -80.16006 6985 ft 279 kts 343°
2026-04-25 16:34 25.92513 -80.16682 7662 ft 281 kts 340°
2026-04-25 16:34 25.94357 -80.17381 8456 ft 280 kts 340°
2026-04-25 16:35 25.96210 -80.18062 9169 ft 280 kts 339°
2026-04-25 16:35 25.97887 -80.19119 9640 ft 282 kts 314°
2026-04-25 16:35 25.98949 -80.20950 10211 ft 285 kts 291°
2026-04-25 16:35 25.99389 -80.23129 10428 ft 305 kts 277°
2026-04-25 16:36 25.99643 -80.25558 10604 ft 328 kts 277°
2026-04-25 16:36 25.99734 -80.26421 10668 ft 336 kts 277°
2026-04-25 16:36 25.99873 -80.30963 11305 ft 366 kts 269°
2026-04-25 16:36 25.99807 -80.33824 12075 ft 373 kts 270°
2026-04-25 16:37 25.99772 -80.36725 13009 ft 378 kts 270°
2026-04-25 16:37 25.99761 -80.39656 13992 ft 379 kts 270°
2026-04-25 16:37 25.99414 -80.42554 14620 ft 386 kts 253°
2026-04-25 16:37 25.98170 -80.45232 15433 ft 394 kts 236°
2026-04-25 16:38 25.96476 -80.47633 16279 ft 397 kts 234°
2026-04-25 16:38 25.94736 -80.50047 17180 ft 402 kts 234°
2026-04-25 16:38 25.92986 -80.52481 18135 ft 404 kts 234°
2026-04-25 16:38 25.91228 -80.54937 18956 ft 408 kts 235°
2026-04-25 16:39 25.90652 -80.55746 19209 ft 410 kts 235°
2026-04-25 16:39 25.87678 -80.59934 20442 ft 420 kts 235°
2026-04-25 16:39 25.85862 -80.62499 21206 ft 425 kts 235°
2026-04-25 16:39 25.84029 -80.65088 21963 ft 429 kts 235°
2026-04-25 16:40 25.82169 -80.67714 22684 ft 434 kts 235°
2026-04-25 16:40 25.80289 -80.70366 23362 ft 439 kts 235°
2026-04-25 16:40 25.78494 -80.73110 23859 ft 440 kts 243°
2026-04-25 16:40 25.77384 -80.76240 24321 ft 434 kts 258°
2026-04-25 16:41 25.76636 -80.79521 24760 ft 440 kts 258°
2026-04-25 16:41 25.76378 -80.80588 24929 ft 442 kts 257°
2026-04-25 16:41 25.74326 -80.88269 26286 ft 447 kts 256°
2026-04-25 16:42 25.73413 -80.91580 26780 ft 450 kts 256°
2026-04-25 16:42 25.72496 -80.94919 27205 ft 454 kts 256°
2026-04-25 16:42 25.71577 -80.98279 27635 ft 458 kts 256°
2026-04-25 16:42 25.70649 -81.01670 28085 ft 460 kts 256°
2026-04-25 16:43 25.69719 -81.05067 28520 ft 462 kts 256°
2026-04-25 16:43 25.68781 -81.08488 28911 ft 465 kts 256°
2026-04-25 16:43 25.67849 -81.11885 29248 ft 467 kts 256°
2026-04-25 16:43 25.66905 -81.15316 29803 ft 464 kts 257°
2026-04-25 16:44 25.65965 -81.18735 30227 ft 460 kts 257°
2026-04-25 16:44 25.65380 -81.22195 30313 ft 457 kts 271°
2026-04-25 16:44 25.65638 -81.25685 30505 ft 455 kts 283°
2026-04-25 16:44 25.66552 -81.29032 30816 ft 452 kts 295°
2026-04-25 16:45 25.67964 -81.32122 31103 ft 449 kts 297°
2026-04-25 16:45 25.69421 -81.35193 31426 ft 450 kts 297°
2026-04-25 16:45 25.70873 -81.38275 31584 ft 454 kts 297°
2026-04-25 16:45 25.72327 -81.41398 31784 ft 456 kts 297°
2026-04-25 16:46 25.73763 -81.44522 32186 ft 453 kts 297°
2026-04-25 16:46 25.75179 -81.47624 32646 ft 449 kts 297°
2026-04-25 16:46 25.76583 -81.50714 33045 ft 447 kts 297°
2026-04-25 16:46 25.77509 -81.52755 33280 ft 447 kts 296°
2026-04-25 16:47 25.79375 -81.56874 33752 ft 446 kts 296°
2026-04-25 16:47 25.80766 -81.59946 34108 ft 444 kts 296°
2026-04-25 16:47 25.82132 -81.62963 34447 ft 443 kts 296°
2026-04-25 16:47 25.83530 -81.66051 34810 ft 440 kts 296°
2026-04-25 16:48 25.84886 -81.69050 35090 ft 441 kts 296°
2026-04-25 16:48 25.86260 -81.72090 35380 ft 440 kts 296°
2026-04-25 16:48 25.87629 -81.75119 35740 ft 438 kts 296°
2026-04-25 16:48 25.89171 -81.78021 35985 ft 438 kts 306°
2026-04-25 16:49 25.91297 -81.80449 36228 ft 440 kts 320°
2026-04-25 16:49 25.93777 -81.82444 36365 ft 442 kts 321°
2026-04-25 16:49 25.96260 -81.84457 36595 ft 442 kts 320°
2026-04-25 16:49 25.98726 -81.86490 36938 ft 440 kts 320°
2026-04-25 16:50 26.01166 -81.88523 37308 ft 437 kts 320°
2026-04-25 16:50 26.03588 -81.90552 37628 ft 436 kts 320°
2026-04-25 16:50 26.05995 -81.92577 38007 ft 433 kts 320°
2026-04-25 16:50 26.08390 -81.94594 38346 ft 431 kts 320°
2026-04-25 16:51 26.10781 -81.96610 38606 ft 430 kts 319°
2026-04-25 16:51 26.13175 -81.98631 38805 ft 430 kts 319°
2026-04-25 16:51 26.15532 -82.00620 38981 ft 430 kts 319°
2026-04-25 16:51 26.17148 -82.01985 39101 ft 430 kts 319°
2026-04-25 16:52 26.20304 -82.04649 39350 ft 430 kts 319°
2026-04-25 16:52 26.22687 -82.06662 39533 ft 430 kts 319°
2026-04-25 16:52 26.25066 -82.08673 39713 ft 430 kts 319°
2026-04-25 16:52 26.27449 -82.10688 39850 ft 430 kts 319°
2026-04-25 16:53 26.34603 -82.16745 39937 ft 431 kts 319°
2026-04-25 16:54 26.39380 -82.20793 39959 ft 431 kts 320°
2026-04-25 16:54 26.44158 -82.24847 39952 ft 431 kts 320°
2026-04-25 16:55 26.48931 -82.28901 39957 ft 431 kts 320°
2026-04-25 16:55 26.53711 -82.32967 39959 ft 431 kts 320°
2026-04-25 16:56 26.58490 -82.37034 39948 ft 432 kts 320°
2026-04-25 16:56 26.63268 -82.41106 39959 ft 432 kts 320°
2026-04-25 16:57 26.68046 -82.45183 39982 ft 432 kts 320°
2026-04-25 16:57 26.72834 -82.49272 39970 ft 434 kts 320°
2026-04-25 16:58 26.77644 -82.53384 39964 ft 435 kts 320°
2026-04-25 16:58 26.82431 -82.57482 39962 ft 436 kts 320°
2026-04-25 16:59 26.87254 -82.61614 39962 ft 437 kts 320°
2026-04-25 16:59 26.92078 -82.65752 39964 ft 437 kts 320°
2026-04-25 17:00 26.96911 -82.69902 39965 ft 437 kts 320°
2026-04-25 17:00 27.01745 -82.74059 39963 ft 438 kts 321°
2026-04-25 17:01 27.06551 -82.78195 39955 ft 438 kts 321°
2026-04-25 17:01 27.11367 -82.82384 39950 ft 435 kts 316°
2026-04-25 17:01 27.13368 -82.84907 39977 ft 432 kts 303°
2026-04-25 17:02 27.14764 -82.87879 39954 ft 431 kts 290°
2026-04-25 17:02 27.16702 -82.94251 39973 ft 432 kts 290°
2026-04-25 17:03 27.18701 -83.00625 39973 ft 433 kts 291°
2026-04-25 17:03 27.20736 -83.07025 39974 ft 435 kts 291°
2026-04-25 17:04 27.22768 -83.13398 39973 ft 436 kts 291°
2026-04-25 17:04 27.24815 -83.19826 39974 ft 436 kts 291°
2026-04-25 17:05 27.26856 -83.26253 39975 ft 436 kts 291°
2026-04-25 17:05 27.29905 -83.35874 39976 ft 435 kts 291°
2026-04-25 17:06 27.31927 -83.42269 39975 ft 434 kts 291°
2026-04-25 17:06 27.33933 -83.48625 39980 ft 434 kts 290°
2026-04-25 17:07 27.35948 -83.55024 39970 ft 434 kts 291°
2026-04-25 17:07 27.37958 -83.61414 39973 ft 433 kts 291°
2026-04-25 17:08 27.39962 -83.67799 39970 ft 432 kts 291°
2026-04-25 17:08 27.41960 -83.74175 39968 ft 432 kts 291°
2026-04-25 17:09 27.43954 -83.80550 39976 ft 431 kts 291°
2026-04-25 17:09 27.45944 -83.86926 39976 ft 431 kts 291°
2026-04-25 17:10 27.47930 -83.93298 39955 ft 431 kts 291°
2026-04-25 17:10 27.49910 -83.99664 39968 ft 431 kts 291°
2026-04-25 17:11 27.51876 -84.05995 39971 ft 431 kts 291°
2026-04-25 17:11 27.53851 -84.12368 39974 ft 431 kts 291°
2026-04-25 17:12 27.55828 -84.18757 39968 ft 431 kts 291°
2026-04-25 17:12 27.57801 -84.25149 39968 ft 431 kts 291°
2026-04-25 17:13 27.59119 -84.29421 39954 ft 432 kts 290°
2026-04-25 17:13 27.61737 -84.37931 39968 ft 431 kts 290°
2026-04-25 17:14 27.63701 -84.44327 39966 ft 432 kts 290°
2026-04-25 17:14 27.65655 -84.50700 39968 ft 432 kts 290°
2026-04-25 17:15 27.67616 -84.57111 39971 ft 432 kts 290°
2026-04-25 17:15 27.69572 -84.63515 39970 ft 432 kts 290°
2026-04-25 17:16 27.71526 -84.69925 39968 ft 431 kts 290°
2026-04-25 17:16 27.73461 -84.76286 39965 ft 431 kts 290°
2026-04-25 17:17 27.75404 -84.82687 39963 ft 431 kts 290°
2026-04-25 17:17 27.77344 -84.89085 39962 ft 430 kts 290°
2026-04-25 17:18 27.79279 -84.95482 39966 ft 430 kts 290°
2026-04-25 17:18 27.81211 -85.01881 39967 ft 430 kts 290°
2026-04-25 17:19 27.83141 -85.08284 39958 ft 430 kts 290°
2026-04-25 17:19 27.85051 -85.14634 39966 ft 429 kts 290°
2026-04-25 17:20 27.86970 -85.21024 39966 ft 429 kts 290°
2026-04-25 17:20 27.88888 -85.27416 39964 ft 429 kts 290°
2026-04-25 17:21 27.90828 -85.33806 39962 ft 429 kts 290°
2026-04-25 17:21 27.92769 -85.40192 39962 ft 429 kts 290°
2026-04-25 17:22 27.94053 -85.44423 39960 ft 429 kts 290°
2026-04-25 17:22 27.96625 -85.52929 39958 ft 429 kts 290°
2026-04-25 17:23 27.98553 -85.59320 39961 ft 429 kts 290°
2026-04-25 17:23 28.00478 -85.65714 39957 ft 429 kts 289°
2026-04-25 17:24 28.02401 -85.72114 39954 ft 430 kts 289°
2026-04-25 17:24 28.04325 -85.78531 39961 ft 431 kts 289°
2026-04-25 17:25 28.06251 -85.84967 39960 ft 432 kts 289°
2026-04-25 17:25 28.08179 -85.91422 39956 ft 433 kts 289°
2026-04-25 17:26 28.10109 -85.97894 39957 ft 434 kts 289°
2026-04-25 17:26 28.12025 -86.04332 39956 ft 434 kts 289°
2026-04-25 17:27 28.13952 -86.10821 39957 ft 434 kts 289°
2026-04-25 17:27 28.15240 -86.15163 39956 ft 434 kts 289°
2026-04-25 17:28 28.17796 -86.23797 39953 ft 433 kts 288°
2026-04-25 17:28 28.19383 -86.29174 39952 ft 432 kts 288°
2026-04-25 17:29 28.21287 -86.35632 39950 ft 431 kts 288°
2026-04-25 17:29 28.23186 -86.42086 39949 ft 430 kts 288°
2026-04-25 17:30 28.25075 -86.48521 39952 ft 429 kts 288°
2026-04-25 17:30 28.26958 -86.54944 39950 ft 429 kts 288°
2026-04-25 17:31 28.28827 -86.61335 39949 ft 429 kts 288°
2026-04-25 17:31 28.30704 -86.67763 39947 ft 428 kts 288°
2026-04-25 17:32 28.32579 -86.74184 39944 ft 428 kts 288°
2026-04-25 17:32 28.34462 -86.80608 39952 ft 429 kts 288°
2026-04-25 17:33 28.36343 -86.87038 39951 ft 429 kts 288°
2026-04-25 17:33 28.38208 -86.93425 39948 ft 429 kts 288°
2026-04-25 17:34 28.40086 -86.99873 39942 ft 429 kts 288°
2026-04-25 17:34 28.41957 -87.06315 39947 ft 430 kts 288°
2026-04-25 17:35 28.43830 -87.12771 39946 ft 430 kts 288°
2026-04-25 17:35 28.45701 -87.19235 39946 ft 430 kts 288°
2026-04-25 17:36 28.47568 -87.25700 39946 ft 431 kts 288°
2026-04-25 17:36 28.49435 -87.32177 39945 ft 431 kts 288°
2026-04-25 17:37 28.51288 -87.38615 39941 ft 431 kts 288°
2026-04-25 17:37 28.53150 -87.45099 39949 ft 432 kts 288°
2026-04-25 17:38 28.54711 -87.50545 39945 ft 432 kts 288°
2026-04-25 17:38 28.56876 -87.58115 39945 ft 433 kts 287°
2026-04-25 17:39 28.58738 -87.64641 39945 ft 434 kts 287°
2026-04-25 17:39 28.60598 -87.71171 39934 ft 434 kts 288°
2026-04-25 17:40 28.62445 -87.77671 39938 ft 434 kts 288°
2026-04-25 17:40 28.64300 -87.84209 39945 ft 434 kts 288°
2026-04-25 17:41 28.66158 -87.90770 39950 ft 435 kts 288°
2026-04-25 17:41 28.68015 -87.97345 39944 ft 435 kts 288°
2026-04-25 17:42 28.69855 -88.03870 39942 ft 435 kts 288°
2026-04-25 17:42 28.71704 -88.10445 39940 ft 435 kts 288°
2026-04-25 17:43 28.73544 -88.17012 39941 ft 435 kts 288°
2026-04-25 17:43 28.75379 -88.23577 39942 ft 434 kts 288°
2026-04-25 17:44 28.77209 -88.30139 39944 ft 434 kts 288°
2026-04-25 17:44 28.79035 -88.36698 39940 ft 434 kts 288°
2026-04-25 17:45 28.80551 -88.42155 39942 ft 433 kts 288°
2026-04-25 17:45 28.82663 -88.49774 39932 ft 433 kts 288°
2026-04-25 17:46 28.84477 -88.56332 39940 ft 434 kts 288°
2026-04-25 17:46 28.86290 -88.62900 39937 ft 434 kts 288°
2026-04-25 17:47 28.88100 -88.69477 39939 ft 435 kts 288°
2026-04-25 17:47 28.89620 -88.76156 39940 ft 436 kts 285°
2026-04-25 17:48 28.91740 -88.86259 39932 ft 436 kts 285°
2026-04-25 17:49 28.93149 -88.92943 39950 ft 435 kts 285°
2026-04-25 17:49 28.94572 -88.99668 39951 ft 435 kts 285°
2026-04-25 17:50 28.95991 -89.06377 39946 ft 434 kts 284°
2026-04-25 17:50 28.97402 -89.13068 39934 ft 433 kts 284°
2026-04-25 17:51 28.98804 -89.19741 39936 ft 431 kts 284°
2026-04-25 17:51 29.00200 -89.26400 39927 ft 430 kts 285°
2026-04-25 17:52 29.01586 -89.33026 39934 ft 428 kts 285°
2026-04-25 17:52 29.02965 -89.39638 39938 ft 427 kts 285°
2026-04-25 17:53 29.04340 -89.46244 39936 ft 427 kts 285°
2026-04-25 17:53 29.05701 -89.52800 39938 ft 427 kts 285°
2026-04-25 17:54 29.07069 -89.59411 39937 ft 427 kts 285°
2026-04-25 17:54 29.08438 -89.66044 39938 ft 427 kts 285°
2026-04-25 17:55 29.09793 -89.72624 39931 ft 428 kts 285°
2026-04-25 17:55 29.11153 -89.79248 39944 ft 428 kts 285°
2026-04-25 17:56 29.12510 -89.85878 39932 ft 428 kts 285°
2026-04-25 17:56 29.13867 -89.92521 39933 ft 428 kts 285°
2026-04-25 17:57 29.15220 -89.99164 39942 ft 428 kts 285°
2026-04-25 17:57 29.16568 -90.05799 39940 ft 428 kts 285°
2026-04-25 17:58 29.17888 -90.12400 39938 ft 428 kts 284°
2026-04-25 17:58 29.19036 -90.19083 39944 ft 428 kts 283°
2026-04-25 17:59 29.20133 -90.25783 39942 ft 427 kts 283°
2026-04-25 17:59 29.21239 -90.32466 39942 ft 427 kts 283°
2026-04-25 18:00 29.22357 -90.39150 39932 ft 427 kts 283°
2026-04-25 18:00 29.23468 -90.45787 39928 ft 423 kts 283°
2026-04-25 18:01 29.24568 -90.52370 39921 ft 419 kts 283°
2026-04-25 18:01 29.25651 -90.58873 39935 ft 418 kts 283°
2026-04-25 18:02 29.26737 -90.65410 39933 ft 417 kts 283°
2026-04-25 18:02 29.27816 -90.71933 39936 ft 417 kts 283°
2026-04-25 18:03 29.28894 -90.78465 39940 ft 417 kts 283°
2026-04-25 18:03 29.29967 -90.84990 39930 ft 417 kts 283°
2026-04-25 18:04 29.31036 -90.91517 39933 ft 416 kts 283°
2026-04-25 18:04 29.32100 -90.98032 39933 ft 415 kts 283°
2026-04-25 18:05 29.33160 -91.04540 39933 ft 415 kts 283°
2026-04-25 18:05 29.34209 -91.10999 39933 ft 415 kts 283°
2026-04-25 18:06 29.35263 -91.17511 39932 ft 414 kts 283°
2026-04-25 18:06 29.36309 -91.23999 39939 ft 414 kts 283°
2026-04-25 18:07 29.37355 -91.30502 39937 ft 414 kts 283°
2026-04-25 18:07 29.38389 -91.36956 39932 ft 414 kts 283°
2026-04-25 18:08 29.39428 -91.43461 39931 ft 414 kts 283°
2026-04-25 18:08 29.40464 -91.49966 39935 ft 414 kts 283°
2026-04-25 18:09 29.41496 -91.56469 39921 ft 414 kts 283°
2026-04-25 18:09 29.42517 -91.62925 39927 ft 414 kts 283°
2026-04-25 18:10 29.43544 -91.69433 39926 ft 415 kts 283°
2026-04-25 18:10 29.44569 -91.75958 39924 ft 415 kts 283°
2026-04-25 18:11 29.45592 -91.82487 39925 ft 415 kts 283°
2026-04-25 18:11 29.46611 -91.89012 39922 ft 416 kts 283°
2026-04-25 18:12 29.47625 -91.95536 39918 ft 415 kts 283°
2026-04-25 18:12 29.48629 -92.02009 39914 ft 414 kts 283°
2026-04-25 18:13 29.49635 -92.08514 39914 ft 413 kts 283°
2026-04-25 18:13 29.50637 -92.15019 39912 ft 413 kts 283°
2026-04-25 18:14 29.52131 -92.24758 39933 ft 412 kts 283°
2026-04-25 18:14 29.52954 -92.30145 39914 ft 412 kts 283°
2026-04-25 18:15 29.54101 -92.37676 39911 ft 411 kts 283°
2026-04-25 18:15 29.55081 -92.44134 39910 ft 410 kts 283°
2026-04-25 18:16 29.56058 -92.50596 39914 ft 410 kts 283°
2026-04-25 18:17 29.57352 -92.59184 39916 ft 410 kts 283°
2026-04-25 18:17 29.58320 -92.65638 39915 ft 409 kts 283°
2026-04-25 18:18 29.59284 -92.72087 39920 ft 409 kts 283°
2026-04-25 18:18 29.60245 -92.78537 39922 ft 409 kts 283°
2026-04-25 18:19 29.61197 -92.84944 39920 ft 408 kts 283°
2026-04-25 18:19 29.62150 -92.91380 39917 ft 408 kts 283°
2026-04-25 18:20 29.63098 -92.97819 39920 ft 408 kts 283°
2026-04-25 18:20 29.64042 -93.04257 39918 ft 408 kts 283°
2026-04-25 18:21 29.64982 -93.10695 39915 ft 408 kts 282°
2026-04-25 18:21 29.65919 -93.17132 39912 ft 408 kts 282°
2026-04-25 18:22 29.66847 -93.23525 39913 ft 407 kts 282°
2026-04-25 18:22 29.67775 -93.29950 39917 ft 407 kts 282°
2026-04-25 18:23 29.68702 -93.36379 39914 ft 407 kts 282°
2026-04-25 18:23 29.69626 -93.42817 39913 ft 407 kts 282°
2026-04-25 18:24 29.70541 -93.49215 39914 ft 407 kts 282°
2026-04-25 18:24 29.71458 -93.55646 39905 ft 407 kts 282°
2026-04-25 18:25 29.72372 -93.62080 39908 ft 408 kts 282°
2026-04-25 18:25 29.73284 -93.68522 39905 ft 408 kts 282°
2026-04-25 18:26 29.74192 -93.74960 39909 ft 408 kts 282°
2026-04-25 18:26 29.75097 -93.81405 39887 ft 408 kts 282°
2026-04-25 18:27 29.76000 -93.87851 39890 ft 407 kts 282°
2026-04-25 18:27 29.76892 -93.94247 39915 ft 407 kts 282°
2026-04-25 18:28 29.77787 -94.00684 39895 ft 407 kts 282°
2026-04-25 18:28 29.78679 -94.07126 39889 ft 407 kts 282°
2026-04-25 18:29 29.80010 -94.16785 39887 ft 407 kts 282°
2026-04-25 18:30 29.81770 -94.29637 39887 ft 405 kts 282°
2026-04-25 18:30 29.82637 -94.36006 39885 ft 405 kts 282°
2026-04-25 18:31 29.83507 -94.42411 39883 ft 405 kts 282°
2026-04-25 18:31 29.84374 -94.48819 39879 ft 405 kts 282°
2026-04-25 18:32 29.85240 -94.55227 39879 ft 405 kts 282°
2026-04-25 18:32 29.86102 -94.61627 39870 ft 404 kts 281°
2026-04-25 18:33 29.86955 -94.67990 39868 ft 403 kts 281°
2026-04-25 18:33 29.87809 -94.74380 39878 ft 403 kts 281°
2026-04-25 18:34 29.88660 -94.80768 39867 ft 404 kts 281°
2026-04-25 18:34 29.89509 -94.87169 39872 ft 403 kts 281°
2026-04-25 18:35 29.90353 -94.93556 39865 ft 403 kts 281°
2026-04-25 18:35 29.91195 -94.99950 39867 ft 403 kts 281°
2026-04-25 18:36 29.92031 -95.06326 39865 ft 402 kts 281°
2026-04-25 18:36 29.92858 -95.12655 39867 ft 402 kts 281°
2026-04-25 18:37 29.93686 -95.19021 39868 ft 401 kts 281°
2026-04-25 18:37 29.94511 -95.25387 39870 ft 401 kts 281°
2026-04-25 18:38 29.95335 -95.31757 39874 ft 402 kts 281°
2026-04-25 18:38 29.96210 -95.38129 39871 ft 401 kts 282°
2026-04-25 18:39 29.97250 -95.44454 39866 ft 401 kts 283°
2026-04-25 18:39 29.98296 -95.50776 39869 ft 401 kts 283°
2026-04-25 18:40 29.99313 -95.57050 39875 ft 401 kts 282°
2026-04-25 18:40 30.00328 -95.63386 39859 ft 401 kts 282°
2026-04-25 18:41 30.01335 -95.69708 39815 ft 400 kts 282°
2026-04-25 18:41 30.02338 -95.76027 39817 ft 399 kts 282°
2026-04-25 18:42 30.03004 -95.80239 39792 ft 399 kts 282°
2026-04-25 18:42 30.04328 -95.88625 39789 ft 398 kts 282°
2026-04-25 18:43 30.05317 -95.94912 39751 ft 398 kts 282°
2026-04-25 18:43 30.06297 -96.01161 39736 ft 398 kts 282°
2026-04-25 18:44 30.07280 -96.07448 39707 ft 398 kts 282°
2026-04-25 18:44 30.08256 -96.13750 39669 ft 398 kts 282°
2026-04-25 18:45 30.09225 -96.20041 39657 ft 398 kts 282°
2026-04-25 18:45 30.10192 -96.26333 39677 ft 398 kts 282°
2026-04-25 18:46 30.11156 -96.32628 39674 ft 398 kts 282°
2026-04-25 18:46 30.12118 -96.38926 39681 ft 398 kts 282°
2026-04-25 18:47 30.13071 -96.45186 39675 ft 398 kts 282°
2026-04-25 18:47 30.14027 -96.51485 39668 ft 398 kts 282°
2026-04-25 18:48 30.14979 -96.57783 39702 ft 398 kts 282°
2026-04-25 18:48 30.15929 -96.64083 39741 ft 398 kts 282°
2026-04-25 18:49 30.16877 -96.70399 39791 ft 398 kts 282°
2026-04-25 18:49 30.17823 -96.76712 39826 ft 398 kts 282°
2026-04-25 18:50 30.18759 -96.82985 39862 ft 398 kts 282°
2026-04-25 18:50 30.19697 -96.89300 39889 ft 398 kts 281°
2026-04-25 18:51 30.20324 -96.93528 39886 ft 398 kts 281°
2026-04-25 18:51 30.21566 -97.01931 39914 ft 398 kts 281°
2026-04-25 18:52 30.22495 -97.08243 39890 ft 398 kts 281°
2026-04-25 18:52 30.23421 -97.14549 39873 ft 398 kts 281°
2026-04-25 18:53 30.24344 -97.20856 39782 ft 397 kts 281°
2026-04-25 18:53 30.25262 -97.27147 39786 ft 396 kts 281°
2026-04-25 18:54 30.26624 -97.36527 39806 ft 396 kts 281°
2026-04-25 18:55 30.27532 -97.42805 39816 ft 395 kts 281°
2026-04-25 18:55 30.28435 -97.49073 39818 ft 395 kts 281°
2026-04-25 18:56 30.29336 -97.55346 39823 ft 395 kts 281°
2026-04-25 18:56 30.30234 -97.61621 39827 ft 395 kts 281°
2026-04-25 18:57 30.31128 -97.67892 39832 ft 395 kts 281°
2026-04-25 18:57 30.32016 -97.74137 39837 ft 396 kts 281°
2026-04-25 18:58 30.32906 -97.80426 39835 ft 396 kts 281°
2026-04-25 18:58 30.34239 -97.89879 39878 ft 397 kts 281°
2026-04-25 18:59 30.36004 -98.02482 39880 ft 397 kts 281°
2026-04-25 19:00 30.37322 -98.11949 39871 ft 397 kts 281°
2026-04-25 19:01 30.38630 -98.21401 39839 ft 398 kts 281°
2026-04-25 19:01 30.39503 -98.27731 39839 ft 398 kts 281°
2026-04-25 19:02 30.40807 -98.37233 39840 ft 398 kts 280°
2026-04-25 19:03 30.41816 -98.44601 39795 ft 398 kts 280°
2026-04-25 19:03 30.42966 -98.53038 39797 ft 398 kts 280°
2026-04-25 19:04 30.44257 -98.62556 39795 ft 398 kts 280°
2026-04-25 19:05 30.45965 -98.75236 39786 ft 398 kts 280°
2026-04-25 19:06 30.46671 -98.80506 39773 ft 398 kts 280°
2026-04-25 19:06 30.47942 -98.90036 39775 ft 398 kts 280°
2026-04-25 19:07 30.49201 -98.99524 39775 ft 399 kts 280°
2026-04-25 19:08 30.50458 -99.09058 39769 ft 399 kts 280°
2026-04-25 19:09 30.51985 -99.20705 39772 ft 398 kts 280°
2026-04-25 19:10 30.53366 -99.31319 39764 ft 399 kts 280°
2026-04-25 19:10 30.54185 -99.37647 39772 ft 399 kts 279°
2026-04-25 19:11 30.55004 -99.44002 39787 ft 398 kts 279°
2026-04-25 19:11 30.55824 -99.50380 39804 ft 398 kts 279°
2026-04-25 19:12 30.56639 -99.56746 39821 ft 398 kts 279°
2026-04-25 19:12 30.57444 -99.63064 39835 ft 398 kts 279°
2026-04-25 19:13 30.58250 -99.69419 39848 ft 398 kts 279°
2026-04-25 19:13 30.59055 -99.75776 39866 ft 398 kts 279°
2026-04-25 19:14 30.59855 -99.82135 39856 ft 397 kts 279°
2026-04-25 19:14 30.60644 -99.88485 39834 ft 397 kts 279°
2026-04-25 19:15 30.61424 -99.94818 39817 ft 396 kts 279°
2026-04-25 19:15 30.62198 -100.01117 39802 ft 396 kts 279°
2026-04-25 19:16 30.62972 -100.07443 39781 ft 395 kts 279°
2026-04-25 19:16 30.63743 -100.13768 39769 ft 395 kts 279°
2026-04-25 19:17 30.64511 -100.20088 39767 ft 395 kts 279°
2026-04-25 19:17 30.65271 -100.26375 39761 ft 395 kts 279°
2026-04-25 19:18 30.66034 -100.32710 39808 ft 396 kts 279°
2026-04-25 19:18 30.66794 -100.39044 39834 ft 396 kts 279°
2026-04-25 19:19 30.67552 -100.45395 39857 ft 397 kts 279°
2026-04-25 19:19 30.68302 -100.51701 39879 ft 397 kts 279°
2026-04-25 19:20 30.69054 -100.58056 39883 ft 397 kts 278°
2026-04-25 19:20 30.69804 -100.64414 39896 ft 397 kts 278°
2026-04-25 19:21 30.70552 -100.70782 39888 ft 398 kts 278°
2026-04-25 19:21 30.71668 -100.80336 39868 ft 398 kts 278°
2026-04-25 19:22 30.72410 -100.86718 39845 ft 398 kts 278°
2026-04-25 19:23 30.73516 -100.96247 39842 ft 398 kts 278°
2026-04-25 19:23 30.74620 -101.05823 39875 ft 398 kts 278°
2026-04-25 19:24 30.75352 -101.12207 39887 ft 398 kts 278°
2026-04-25 19:25 30.76806 -101.24970 39894 ft 397 kts 278°
2026-04-25 19:25 30.77166 -101.28150 39780 ft 397 kts 278°
2026-04-25 19:25 30.77526 -101.31330 39756 ft 396 kts 278°
2026-04-25 19:26 30.78237 -101.37643 39773 ft 395 kts 278°
2026-04-25 19:26 30.78947 -101.43980 39776 ft 395 kts 278°
2026-04-25 19:27 30.79540 -101.49286 39771 ft 395 kts 278°
2026-04-25 19:27 30.80358 -101.56649 39770 ft 395 kts 278°
2026-04-25 19:28 30.81060 -101.62992 39766 ft 395 kts 278°
2026-04-25 19:28 30.81760 -101.69344 39760 ft 396 kts 278°
2026-04-25 19:29 30.82456 -101.75695 39757 ft 396 kts 278°
2026-04-25 19:29 30.83146 -101.82015 39758 ft 396 kts 277°
2026-04-25 19:30 30.83835 -101.88367 39757 ft 396 kts 278°
2026-04-25 19:30 30.84524 -101.94733 39754 ft 395 kts 277°
2026-04-25 19:31 30.85207 -102.01082 39760 ft 396 kts 277°
2026-04-25 19:31 30.85889 -102.07449 39748 ft 396 kts 277°
2026-04-25 19:32 30.86568 -102.13820 39748 ft 397 kts 277°
2026-04-25 19:32 30.87131 -102.19123 39751 ft 397 kts 277°
2026-04-25 19:33 30.87919 -102.26583 39749 ft 398 kts 277°
2026-04-25 19:33 30.88587 -102.32937 39744 ft 398 kts 277°
2026-04-25 19:34 30.89255 -102.39332 39750 ft 398 kts 277°
2026-04-25 19:34 30.89922 -102.45732 39750 ft 398 kts 277°
2026-04-25 19:35 30.90584 -102.52131 39762 ft 397 kts 277°
2026-04-25 19:35 30.91243 -102.58527 39793 ft 397 kts 277°
2026-04-25 19:36 30.91898 -102.64907 39819 ft 396 kts 277°
2026-04-25 19:36 30.92543 -102.71232 39850 ft 395 kts 277°
2026-04-25 19:37 30.93189 -102.77592 39877 ft 395 kts 277°
2026-04-25 19:37 30.93832 -102.83956 39746 ft 394 kts 276°
2026-04-25 19:38 30.94469 -102.90289 39745 ft 393 kts 276°
2026-04-25 19:38 30.95195 -102.96600 39755 ft 393 kts 280°
2026-04-25 19:39 30.96584 -103.02723 39752 ft 394 kts 285°
2026-04-25 19:39 30.98277 -103.08806 39750 ft 395 kts 285°
2026-04-25 19:40 30.99968 -103.14904 39748 ft 395 kts 285°
2026-04-25 19:40 31.01649 -103.20999 39757 ft 395 kts 285°
2026-04-25 19:41 31.03323 -103.27100 39755 ft 395 kts 285°
2026-04-25 19:41 31.04431 -103.31145 39756 ft 395 kts 285°
2026-04-25 19:42 31.06654 -103.39282 39766 ft 395 kts 285°
2026-04-25 19:42 31.08320 -103.45392 39778 ft 395 kts 285°
2026-04-25 19:43 31.09985 -103.51513 39797 ft 395 kts 285°
2026-04-25 19:43 31.11646 -103.57634 39794 ft 395 kts 284°
2026-04-25 19:44 31.13289 -103.63700 39791 ft 394 kts 284°
2026-04-25 19:44 31.14941 -103.69809 39796 ft 394 kts 284°
2026-04-25 19:45 31.16586 -103.75909 39788 ft 393 kts 284°
2026-04-25 19:45 31.18219 -103.81975 39796 ft 393 kts 284°
2026-04-25 19:46 31.19856 -103.88070 39777 ft 393 kts 284°
2026-04-25 19:46 31.21490 -103.94164 39789 ft 393 kts 284°
2026-04-25 19:47 31.23126 -104.00281 39796 ft 394 kts 284°
2026-04-25 19:47 31.24758 -104.06397 39791 ft 394 kts 284°
2026-04-25 19:48 31.26380 -104.12484 39806 ft 395 kts 284°
2026-04-25 19:48 31.28011 -104.18620 39801 ft 395 kts 284°
2026-04-25 19:49 31.29101 -104.22730 39797 ft 395 kts 284°
2026-04-25 19:49 31.31265 -104.30901 39795 ft 394 kts 284°
2026-04-25 19:50 31.33678 -104.40043 39795 ft 393 kts 284°
2026-04-25 19:51 31.35287 -104.46155 39789 ft 392 kts 284°
2026-04-25 19:51 31.36888 -104.52250 39784 ft 392 kts 284°
2026-04-25 19:52 31.38488 -104.58353 39783 ft 392 kts 283°
2026-04-25 19:52 31.40082 -104.64447 39787 ft 392 kts 284°
2026-04-25 19:53 31.41664 -104.70512 39786 ft 392 kts 283°
2026-04-25 19:53 31.43255 -104.76619 39778 ft 392 kts 283°
2026-04-25 19:54 31.44844 -104.82732 39779 ft 392 kts 283°
2026-04-25 19:54 31.46159 -104.87804 39777 ft 392 kts 283°
2026-04-25 19:55 31.47996 -104.94902 39781 ft 391 kts 283°
2026-04-25 19:55 31.49573 -105.01006 39775 ft 391 kts 283°
2026-04-25 19:56 31.51145 -105.07109 39767 ft 391 kts 283°
2026-04-25 19:56 31.52449 -105.12181 39763 ft 390 kts 283°
2026-04-25 19:57 31.54015 -105.18286 39760 ft 390 kts 283°
2026-04-25 19:57 31.55576 -105.24381 39758 ft 390 kts 283°
2026-04-25 19:58 31.57133 -105.30479 39759 ft 390 kts 283°
2026-04-25 19:58 31.58686 -105.36568 39747 ft 390 kts 283°
2026-04-25 19:59 31.60235 -105.42660 39749 ft 390 kts 283°
2026-04-25 19:59 31.61778 -105.48751 39748 ft 390 kts 283°
2026-04-25 20:00 31.63322 -105.54857 39746 ft 390 kts 283°
2026-04-25 20:00 31.64861 -105.60956 39748 ft 390 kts 283°
2026-04-25 20:01 31.67156 -105.70079 39739 ft 391 kts 282°
2026-04-25 20:01 31.68693 -105.76205 39739 ft 391 kts 282°
2026-04-25 20:02 31.70230 -105.82341 39733 ft 391 kts 282°
2026-04-25 20:02 31.71762 -105.88476 39731 ft 391 kts 282°
2026-04-25 20:03 31.73281 -105.94572 39726 ft 391 kts 282°
2026-04-25 20:03 31.74808 -106.00714 39758 ft 392 kts 282°
2026-04-25 20:04 31.76333 -106.06860 39798 ft 392 kts 282°
2026-04-25 20:04 31.77854 -106.13004 39847 ft 391 kts 282°
2026-04-25 20:05 31.79372 -106.19149 39904 ft 391 kts 282°
2026-04-25 20:05 31.80877 -106.25285 39936 ft 390 kts 281°
2026-04-25 20:06 31.81873 -106.31512 39945 ft 386 kts 274°
2026-04-25 20:06 31.82344 -106.37810 39950 ft 387 kts 273°
2026-04-25 20:07 31.82806 -106.44111 39949 ft 387 kts 273°
2026-04-25 20:07 31.83268 -106.50382 39939 ft 387 kts 273°
2026-04-25 20:08 31.83734 -106.56701 39948 ft 388 kts 273°
2026-04-25 20:08 31.84200 -106.63034 39975 ft 388 kts 273°
2026-04-25 20:09 31.84663 -106.69365 39976 ft 388 kts 273°
2026-04-25 20:09 31.85122 -106.75687 39974 ft 388 kts 272°
2026-04-25 20:10 31.85574 -106.81963 39956 ft 387 kts 272°
2026-04-25 20:10 31.86026 -106.88279 39748 ft 388 kts 272°
2026-04-25 20:11 31.86476 -106.94606 39736 ft 388 kts 272°
2026-04-25 20:11 31.86922 -107.00930 39728 ft 388 kts 272°
2026-04-25 20:12 31.87366 -107.07263 39745 ft 389 kts 272°
2026-04-25 20:12 31.87733 -107.12543 39735 ft 389 kts 272°
2026-04-25 20:13 31.88243 -107.19926 39748 ft 389 kts 272°
2026-04-25 20:13 31.88678 -107.26273 39742 ft 389 kts 272°
2026-04-25 20:14 31.89111 -107.32624 39736 ft 389 kts 272°
2026-04-25 20:14 31.89540 -107.38969 39752 ft 389 kts 272°
2026-04-25 20:15 31.89966 -107.45321 39753 ft 389 kts 272°
2026-04-25 20:15 31.90387 -107.51653 39760 ft 388 kts 272°
2026-04-25 20:16 31.90805 -107.57986 39762 ft 388 kts 272°
2026-04-25 20:16 31.91221 -107.64324 39784 ft 389 kts 272°
2026-04-25 20:17 31.91634 -107.70667 39776 ft 388 kts 272°
2026-04-25 20:17 31.92153 -107.76961 39788 ft 387 kts 276°
2026-04-25 20:18 31.93337 -107.83170 39780 ft 391 kts 281°
2026-04-25 20:18 31.94817 -107.89286 39779 ft 391 kts 281°
2026-04-25 20:19 31.96308 -107.95440 39781 ft 391 kts 281°
2026-04-25 20:19 31.97793 -108.01616 39780 ft 391 kts 281°
2026-04-25 20:20 31.99266 -108.07776 39786 ft 391 kts 281°
2026-04-25 20:20 32.00737 -108.13948 39786 ft 391 kts 281°
2026-04-25 20:21 32.02203 -108.20115 39786 ft 390 kts 281°
2026-04-25 20:21 32.03656 -108.26244 39787 ft 390 kts 281°
2026-04-25 20:22 32.04633 -108.30373 39794 ft 391 kts 281°
2026-04-25 20:22 32.06574 -108.38592 39787 ft 391 kts 281°
2026-04-25 20:23 32.08028 -108.44767 39806 ft 391 kts 281°
2026-04-25 20:23 32.09479 -108.50946 39846 ft 391 kts 281°
2026-04-25 20:24 32.10921 -108.57099 39871 ft 391 kts 281°
2026-04-25 20:24 32.12367 -108.63286 39888 ft 391 kts 281°
2026-04-25 20:25 32.13812 -108.69481 39907 ft 391 kts 280°
2026-04-25 20:25 32.15254 -108.75678 39785 ft 391 kts 280°
2026-04-25 20:26 32.16692 -108.81873 39785 ft 391 kts 280°
2026-04-25 20:26 32.18118 -108.88032 39778 ft 392 kts 280°
2026-04-25 20:27 32.19550 -108.94235 39784 ft 391 kts 280°
2026-04-25 20:27 32.20980 -109.00438 39783 ft 391 kts 280°
2026-04-25 20:28 32.22408 -109.06653 39790 ft 392 kts 280°
2026-04-25 20:28 32.23832 -109.12864 39792 ft 392 kts 280°
2026-04-25 20:29 32.25254 -109.19079 39786 ft 392 kts 280°
2026-04-25 20:29 32.26683 -109.25247 39783 ft 392 kts 281°
2026-04-25 20:30 32.28636 -109.31322 39787 ft 396 kts 286°
2026-04-25 20:30 32.30755 -109.37325 39788 ft 396 kts 286°
2026-04-25 20:31 32.32865 -109.43336 39785 ft 395 kts 286°
2026-04-25 20:31 32.34963 -109.49338 39781 ft 395 kts 285°
2026-04-25 20:32 32.37059 -109.55354 39788 ft 395 kts 285°
2026-04-25 20:32 32.39138 -109.61335 39822 ft 396 kts 285°
2026-04-25 20:33 32.41233 -109.67372 39800 ft 397 kts 285°
2026-04-25 20:33 32.42635 -109.71418 39795 ft 397 kts 285°
2026-04-25 20:34 32.45421 -109.79471 39796 ft 397 kts 285°
2026-04-25 20:34 32.47513 -109.85532 39804 ft 398 kts 285°
2026-04-25 20:35 32.49602 -109.91596 39804 ft 397 kts 285°
2026-04-25 20:35 32.51677 -109.97628 39833 ft 397 kts 285°
2026-04-25 20:36 32.53758 -110.03693 39832 ft 397 kts 285°
2026-04-25 20:36 32.55835 -110.09753 39847 ft 396 kts 285°
2026-04-25 20:37 32.57910 -110.15821 39867 ft 397 kts 285°
2026-04-25 20:37 32.59982 -110.21894 39864 ft 397 kts 285°
2026-04-25 20:38 32.62037 -110.27925 39871 ft 398 kts 285°
2026-04-25 20:38 32.64113 -110.34032 39860 ft 399 kts 285°
2026-04-25 20:39 32.66191 -110.40156 39859 ft 400 kts 285°
2026-04-25 20:39 32.67567 -110.44216 39860 ft 401 kts 285°
2026-04-25 20:40 32.70328 -110.52374 39848 ft 398 kts 284°
2026-04-25 20:40 32.72384 -110.58461 39848 ft 396 kts 284°
2026-04-25 20:41 32.74431 -110.64541 39872 ft 396 kts 284°
2026-04-25 20:41 32.76476 -110.70626 39837 ft 397 kts 284°
2026-04-25 20:42 32.78508 -110.76685 39851 ft 397 kts 284°
2026-04-25 20:42 32.80554 -110.82794 39857 ft 398 kts 284°
2026-04-25 20:43 32.82598 -110.88909 39881 ft 398 kts 284°
2026-04-25 20:43 32.84647 -110.95048 39871 ft 399 kts 284°
2026-04-25 20:44 32.86351 -111.00166 39854 ft 400 kts 284°
2026-04-25 20:44 32.88400 -111.06327 39865 ft 400 kts 284°
2026-04-25 20:45 32.90444 -111.12488 39877 ft 400 kts 284°
2026-04-25 20:45 32.92490 -111.18666 39874 ft 401 kts 284°
2026-04-25 20:46 32.94524 -111.24821 39869 ft 402 kts 284°
2026-04-25 20:46 32.96572 -111.31026 39860 ft 402 kts 284°
2026-04-25 20:47 32.98617 -111.37237 39861 ft 402 kts 284°
2026-04-25 20:47 33.00654 -111.43434 39861 ft 401 kts 284°
2026-04-25 20:48 33.02687 -111.49633 39858 ft 401 kts 284°
2026-04-25 20:48 33.04702 -111.55789 39861 ft 401 kts 284°
2026-04-25 20:49 33.06724 -111.61980 39901 ft 401 kts 284°
2026-04-25 20:49 33.08746 -111.68184 39882 ft 401 kts 284°
2026-04-25 20:50 33.10768 -111.74396 39888 ft 401 kts 284°
2026-04-25 20:50 33.12785 -111.80606 39902 ft 401 kts 283°
2026-04-25 20:51 33.14788 -111.86790 39894 ft 402 kts 283°
2026-04-25 20:51 33.16803 -111.93020 39871 ft 402 kts 283°
2026-04-25 20:52 33.18481 -111.98216 39872 ft 402 kts 283°
2026-04-25 20:52 33.20828 -112.05499 39865 ft 402 kts 283°
2026-04-25 20:53 33.22834 -112.11741 39852 ft 403 kts 283°
2026-04-25 20:53 33.24827 -112.17953 39858 ft 403 kts 283°
2026-04-25 20:54 33.26833 -112.24217 39870 ft 404 kts 283°
2026-04-25 20:54 33.28837 -112.30487 39880 ft 402 kts 283°
2026-04-25 20:55 33.30831 -112.36737 39891 ft 403 kts 283°
2026-04-25 20:55 33.32826 -112.43009 39896 ft 404 kts 283°
2026-04-25 20:56 33.34825 -112.49301 39891 ft 405 kts 283°
2026-04-25 20:56 33.36808 -112.55559 39884 ft 405 kts 283°
2026-04-25 20:57 33.38804 -112.61869 39890 ft 406 kts 283°
2026-04-25 20:57 33.40800 -112.68191 39892 ft 406 kts 283°
2026-04-25 20:58 33.42791 -112.74512 39888 ft 405 kts 283°
2026-04-25 20:58 33.44776 -112.80825 39889 ft 405 kts 283°
2026-04-25 20:59 33.46863 -112.87099 39874 ft 407 kts 285°
2026-04-25 20:59 33.49122 -112.93275 39863 ft 407 kts 285°
2026-04-25 21:00 33.50645 -112.97436 39853 ft 406 kts 285°
2026-04-25 21:01 33.54744 -113.08814 39852 ft 406 kts 285°
2026-04-25 21:01 33.56972 -113.15060 39836 ft 407 kts 284°
2026-04-25 21:02 33.59197 -113.21307 39836 ft 408 kts 284°
2026-04-25 21:02 33.61411 -113.27532 39833 ft 408 kts 284°
2026-04-25 21:03 33.63632 -113.33789 39831 ft 407 kts 284°
2026-04-25 21:03 33.65852 -113.40059 39830 ft 407 kts 284°
2026-04-25 21:04 33.68066 -113.46321 39877 ft 408 kts 284°
2026-04-25 21:04 33.70271 -113.52573 39876 ft 409 kts 284°
2026-04-25 21:05 33.72482 -113.58855 39875 ft 409 kts 284°
2026-04-25 21:05 33.74700 -113.65164 39867 ft 409 kts 284°
2026-04-25 21:06 33.76911 -113.71469 39828 ft 409 kts 284°
2026-04-25 21:06 33.79123 -113.77788 39817 ft 411 kts 284°
2026-04-25 21:07 33.81316 -113.84129 39820 ft 411 kts 284°
2026-04-25 21:07 33.83464 -113.90500 39850 ft 411 kts 284°
2026-04-25 21:08 33.85613 -113.96881 39818 ft 411 kts 284°
2026-04-25 21:08 33.87765 -114.03263 39807 ft 410 kts 284°
2026-04-25 21:09 33.90861 -114.12829 39794 ft 403 kts 277°
2026-04-25 21:09 33.92005 -114.19384 39794 ft 400 kts 274°
2026-04-25 21:10 33.93029 -114.25938 39800 ft 401 kts 274°
2026-04-25 21:10 33.94104 -114.32534 39801 ft 402 kts 275°
2026-04-25 21:11 33.95211 -114.39145 39792 ft 403 kts 275°
2026-04-25 21:11 33.96328 -114.45780 39789 ft 404 kts 275°
2026-04-25 21:12 33.97447 -114.52442 39789 ft 405 kts 275°
2026-04-25 21:12 33.98374 -114.57983 39785 ft 406 kts 275°
2026-04-25 21:13 33.99667 -114.65742 39784 ft 406 kts 275°
2026-04-25 21:13 34.00776 -114.72418 39784 ft 406 kts 275°
2026-04-25 21:14 34.01880 -114.79094 39782 ft 406 kts 275°
2026-04-25 21:14 34.02980 -114.85765 39779 ft 405 kts 275°
2026-04-25 21:15 34.04074 -114.92424 39787 ft 404 kts 275°
2026-04-25 21:15 34.05164 -114.99079 39787 ft 404 kts 274°
2026-04-25 21:16 34.06243 -115.05693 39788 ft 405 kts 274°
2026-04-25 21:16 34.07327 -115.12357 39785 ft 406 kts 275°
2026-04-25 21:17 34.08413 -115.19053 39789 ft 407 kts 274°
2026-04-25 21:17 34.09497 -115.25758 39786 ft 407 kts 274°
2026-04-25 21:18 34.10580 -115.32478 39785 ft 408 kts 274°
2026-04-25 21:18 34.11652 -115.39158 39783 ft 408 kts 274°
2026-04-25 21:19 34.12727 -115.45882 39787 ft 408 kts 274°
2026-04-25 21:19 34.13798 -115.52608 39803 ft 408 kts 274°
2026-04-25 21:20 34.14513 -115.57110 39796 ft 408 kts 274°
2026-04-25 21:20 34.15931 -115.66069 39800 ft 408 kts 274°
2026-04-25 21:21 34.16109 -115.72750 39814 ft 393 kts 258°
2026-04-25 21:21 34.15390 -115.79331 39832 ft 397 kts 259°
2026-04-25 21:22 34.14743 -115.85925 39844 ft 399 kts 259°
2026-04-25 21:22 34.14099 -115.92591 39854 ft 401 kts 259°
2026-04-25 21:23 34.13445 -115.99293 39363 ft 405 kts 259°
2026-04-25 21:23 34.13115 -116.02658 38887 ft 400 kts 259°
2026-04-25 21:23 34.12787 -116.06008 38121 ft 400 kts 259°
2026-04-25 21:24 34.12460 -116.09341 37257 ft 400 kts 259°
2026-04-25 21:24 34.12132 -116.12668 36490 ft 399 kts 259°
2026-04-25 21:24 34.11809 -116.15946 35741 ft 399 kts 259°
2026-04-25 21:24 34.11479 -116.19287 34904 ft 404 kts 259°
2026-04-25 21:25 34.11145 -116.22671 34005 ft 409 kts 259°
2026-04-25 21:25 34.10802 -116.26120 32864 ft 415 kts 259°
2026-04-25 21:25 34.10455 -116.29599 31820 ft 420 kts 259°
2026-04-25 21:25 34.10095 -116.33099 31379 ft 422 kts 259°
2026-04-25 21:26 34.09717 -116.36624 30899 ft 426 kts 259°
2026-04-25 21:26 34.09332 -116.40171 30430 ft 426 kts 259°
2026-04-25 21:26 34.08949 -116.43704 29961 ft 423 kts 259°
2026-04-25 21:26 34.08570 -116.47218 29419 ft 421 kts 259°
2026-04-25 21:27 34.08195 -116.50708 28942 ft 418 kts 259°
2026-04-25 21:27 34.07826 -116.54136 28472 ft 406 kts 259°
2026-04-25 21:27 34.07467 -116.57467 28036 ft 394 kts 259°
2026-04-25 21:27 34.07131 -116.60675 27592 ft 384 kts 259°
2026-04-25 21:28 34.06834 -116.63838 27185 ft 375 kts 260°
2026-04-25 21:28 34.06554 -116.66933 26773 ft 367 kts 260°
2026-04-25 21:28 34.06279 -116.69978 26373 ft 363 kts 260°
2026-04-25 21:28 34.06002 -116.73001 25977 ft 361 kts 260°
2026-04-25 21:29 34.05723 -116.76007 25692 ft 358 kts 260°
2026-04-25 21:29 34.05442 -116.79011 25249 ft 362 kts 260°
2026-04-25 21:29 34.05157 -116.82037 24795 ft 361 kts 260°
2026-04-25 21:29 34.04874 -116.85035 24397 ft 358 kts 260°
2026-04-25 21:30 34.04592 -116.88018 24017 ft 356 kts 259°
2026-04-25 21:30 34.04398 -116.89975 23708 ft 355 kts 258°
2026-04-25 21:30 34.04027 -116.92912 23191 ft 354 kts 257°
2026-04-25 21:30 34.03627 -116.95837 22659 ft 353 kts 257°
2026-04-25 21:31 34.03237 -116.98746 22169 ft 350 kts 257°
2026-04-25 21:31 34.02735 -117.02571 21540 ft 347 kts 257°
2026-04-25 21:31 34.02489 -117.04515 21224 ft 346 kts 258°
2026-04-25 21:31 34.02148 -117.07378 20751 ft 344 kts 258°
2026-04-25 21:32 34.01817 -117.10224 20288 ft 341 kts 258°
2026-04-25 21:32 34.01486 -117.13049 19846 ft 339 kts 258°
2026-04-25 21:32 34.01159 -117.15822 19400 ft 338 kts 258°
2026-04-25 21:32 34.00822 -117.18655 18947 ft 336 kts 258°
2026-04-25 21:33 34.00494 -117.21405 18539 ft 335 kts 258°
2026-04-25 21:33 34.00162 -117.24179 18042 ft 334 kts 258°
2026-04-25 21:33 33.99832 -117.26940 17537 ft 331 kts 258°
2026-04-25 21:33 33.99506 -117.29669 17087 ft 327 kts 258°
2026-04-25 21:34 33.99183 -117.32366 16652 ft 324 kts 258°
2026-04-25 21:34 33.98868 -117.35045 16243 ft 322 kts 258°
2026-04-25 21:34 33.98556 -117.37706 15794 ft 319 kts 258°
2026-04-25 21:34 33.98248 -117.40335 15380 ft 315 kts 258°
2026-04-25 21:35 33.97942 -117.42934 14966 ft 312 kts 258°
2026-04-25 21:35 33.97639 -117.45504 14560 ft 308 kts 258°
2026-04-25 21:35 33.97352 -117.48051 14135 ft 305 kts 260°
2026-04-25 21:35 33.97468 -117.50614 13732 ft 310 kts 275°
2026-04-25 21:36 33.97961 -117.53138 13336 ft 307 kts 277°
2026-04-25 21:36 33.98432 -117.55636 12949 ft 304 kts 276°
2026-04-25 21:36 33.98882 -117.58116 12548 ft 301 kts 277°
2026-04-25 21:36 33.99317 -117.60545 12191 ft 300 kts 277°
2026-04-25 21:37 33.99755 -117.63016 11794 ft 302 kts 277°
2026-04-25 21:37 34.00051 -117.64698 11553 ft 304 kts 277°
2026-04-25 21:37 34.00612 -117.68023 11031 ft 302 kts 274°
2026-04-25 21:37 34.00573 -117.70477 10693 ft 283 kts 259°
2026-04-25 21:38 34.00296 -117.72737 10308 ft 264 kts 260°
2026-04-25 21:38 34.00062 -117.74927 10000 ft 267 kts 261°
2026-04-25 21:38 33.99831 -117.77165 9654 ft 268 kts 261°
2026-04-25 21:38 33.99609 -117.79395 9287 ft 267 kts 261°
2026-04-25 21:39 33.99388 -117.81610 8937 ft 265 kts 261°
2026-04-25 21:39 33.99173 -117.83809 8595 ft 263 kts 262°
2026-04-25 21:39 33.98961 -117.85992 8257 ft 261 kts 262°
2026-04-25 21:39 33.98749 -117.88162 7906 ft 260 kts 262°
2026-04-25 21:40 33.98541 -117.90323 7589 ft 258 kts 262°
2026-04-25 21:40 33.98379 -117.92447 7272 ft 257 kts 263°
2026-04-25 21:40 33.98205 -117.94585 6947 ft 255 kts 262°
2026-04-25 21:40 33.98005 -117.96704 6628 ft 254 kts 262°
2026-04-25 21:41 33.97793 -117.98817 6315 ft 254 kts 262°
2026-04-25 21:41 33.97578 -118.00934 5979 ft 254 kts 262°
2026-04-25 21:41 33.97361 -118.03050 5652 ft 255 kts 262°
2026-04-25 21:41 33.97141 -118.05177 5315 ft 255 kts 262°
2026-04-25 21:42 33.96922 -118.07300 4993 ft 255 kts 261°
2026-04-25 21:42 33.96704 -118.09424 4645 ft 256 kts 261°
2026-04-25 21:42 33.96486 -118.11547 4314 ft 255 kts 260°
2026-04-25 21:42 33.96269 -118.13646 3997 ft 256 kts 261°
2026-04-25 21:43 33.96053 -118.15762 3626 ft 247 kts 260°
2026-04-25 21:43 33.95851 -118.17730 3312 ft 227 kts 261°
2026-04-25 21:43 33.95667 -118.19539 3035 ft 207 kts 260°
2026-04-25 21:43 33.95497 -118.21193 2789 ft 190 kts 259°
2026-04-25 21:44 33.95340 -118.22711 2554 ft 178 kts 260°
2026-04-25 21:44 33.95180 -118.24239 2384 ft 190 kts 261°
2026-04-25 21:44 33.94871 -118.27269 1974 ft 176 kts 259°
2026-04-25 21:45 33.94728 -118.28667 1711 ft 158 kts 257°
2026-04-25 21:45 33.94643 -118.29506 1576 ft 142 kts 257°
2026-04-25 21:45 33.94487 -118.30990 1355 ft 134 kts 259°
2026-04-25 21:45 33.94375 -118.32089 1176 ft 128 kts 258°
2026-04-25 21:46 33.94270 -118.33118 969 ft 124 kts 258°
2026-04-25 21:46 33.94167 -118.34160 834 ft 122 kts 260°
2026-04-25 21:46 33.94054 -118.35173 661 ft 122 kts 259°
2026-04-25 21:46 33.93949 -118.36176 435 ft 119 kts 262°
2026-04-25 21:47 33.93849 -118.37132 292 ft 114 kts 261°
2026-04-25 21:47 33.93762 -118.38102 175 ft 119 kts 256°
2026-04-25 21:47 33.93658 -118.39071 99 ft 105 kts 260°
2026-04-25 21:47 33.93582 -118.39780 100 ft 61 kts 263°
2026-04-25 21:48 33.93547 -118.40131 101 ft 32 kts 264°
2026-04-25 21:48 33.93535 -118.40368 102 ft 23 kts 274°
2026-04-25 21:48 33.93555 -118.40517 101 ft 14 kts 284°
2026-04-25 21:48 33.93584 -118.40606 100 ft 9 kts 293°
2026-04-25 21:49 33.93598 -118.40710 98 ft 18 kts 265°
2026-04-25 21:49 33.93604 -118.40834 99 ft 12 kts 288°
2026-04-25 21:49 33.93661 -118.40892 100 ft 11 kts 345°
2026-04-25 21:49 33.93730 -118.40906 100 ft 4 kts 353°
2026-04-25 21:50 33.93745 -118.40908 100 ft 9 kts 353°
2026-04-25 21:50 33.93783 -118.40913 99 ft 0 kts 353°
2026-04-25 21:51 33.93790 -118.40914 99 ft 3 kts 353°
2026-04-25 21:51 33.93813 -118.40917 99 ft 4 kts 353°
2026-04-25 21:51 33.93846 -118.40917 98 ft 5 kts 14°
2026-04-25 21:52 33.93867 -118.40885 99 ft 5 kts 66°
2026-04-25 21:52 33.93876 -118.40839 97 ft 6 kts 81°
2026-04-25 21:52 33.93882 -118.40785 101 ft 7 kts 82°
2026-04-25 21:52 33.93888 -118.40728 97 ft 7 kts 84°
2026-04-25 21:53 33.93894 -118.40667 99 ft 7 kts 83°
2026-04-25 21:53 33.93900 -118.40606 100 ft 7 kts 83°
2026-04-25 21:53 33.93909 -118.40545 99 ft 7 kts 66°
2026-04-25 21:53 33.93947 -118.40502 100 ft 7 kts 36°
2026-04-25 21:54 33.93972 -118.40480 101 ft 2 kts 36°
2026-04-25 21:54 33.93975 -118.40478 101 ft 0 kts 36°